• In Belarus
  • List of Countries
  • For 7 days
  • Water Temperature
  • Weather Map
  • Weather Widgets
  • user-avatar
    Login

    Hourly Weather Palyudovichi

    Today, 18 September, Wednesday

    Time Temperature Precipitation Wind Pressure Humidity
    00:00 +8°C° 0.6 mm 1 mps 736 mmHg 95%
    01:00 +7°C° 0.6 mm 2 mps 736 mmHg 95%
    02:00 +7°C° 0 mm 2 mps 736 mmHg 95%
    03:00 +7°C° 1 mm 2 mps 736 mmHg 95%
    04:00 +5°C° 1 mm 3 mps 736 mmHg 95%
    05:00 +5°C° 1 mm 3 mps 736 mmHg 95%
    06:00 +5°C° 0.1 mm 3 mps 736 mmHg 94%
    07:00 +5°C° 0.1 mm 3 mps 736 mmHg 94%
    08:00 +7°C° 0 mm 3 mps 737 mmHg 94%
    09:00 +7°C° 0.4 mm 3 mps 737 mmHg 93%
    10:00 +8°C° 0.4 mm 3 mps 738 mmHg 92%
    11:00 +9°C° 0.4 mm 3 mps 738 mmHg 90%
    12:00 +9°C° 0.6 mm 3 mps 739 mmHg 86%
    13:00 +10°C° 0.6 mm 3 mps 739 mmHg 83%
    14:00 +11°C° 0.6 mm 4 mps 739 mmHg 79%
    15:00 +11°C° 0.3 mm 3 mps 740 mmHg 80%
    16:00 +11°C° 0.3 mm 3 mps 740 mmHg 81%
    17:00 +12°C° 0.3 mm 2 mps 741 mmHg 81%
    18:00 +9°C° 0 mm 2 mps 741 mmHg 85%
    19:00 +8°C° 0 mm 2 mps 742 mmHg 89%
    20:00 +7°C° 0 mm 2 mps 742 mmHg 93%
    21:00 +7°C° 0 mm 2 mps 743 mmHg 94%
    22:00 +6°C° 0 mm 2 mps 743 mmHg 95%
    23:00 +6°C° 0 mm 2 mps 744 mmHg 96%

    Tomorrow, 19 September, Thursday

    Time Temperature Precipitation Wind Pressure Humidity
    00:00 +6°C° 0 mm 2 mps 744 mmHg 97%
    01:00 +5°C° 0 mm 2 mps 745 mmHg 97%
    02:00 +5°C° 0 mm 2 mps 745 mmHg 98%
    03:00 +5°C° 0 mm 2 mps 745 mmHg 97%
    04:00 +5°C° 0 mm 2 mps 746 mmHg 97%
    05:00 +5°C° 0 mm 2 mps 746 mmHg 97%
    06:00 +6°C° 0 mm 2 mps 747 mmHg 95%
    07:00 +6°C° 0 mm 2 mps 747 mmHg 94%
    08:00 +7°C° 0 mm 3 mps 748 mmHg 92%
    09:00 +8°C° 0.1 mm 2 mps 748 mmHg 86%
    10:00 +9°C° 0.1 mm 2 mps 748 mmHg 80%
    11:00 +10°C° 0.1 mm 2 mps 749 mmHg 75%
    12:00 +10°C° 0.2 mm 3 mps 749 mmHg 71%
    13:00 +11°C° 0.2 mm 3 mps 749 mmHg 66%
    14:00 +12°C° 0.2 mm 3 mps 749 mmHg 62%
    15:00 +11°C° 0.1 mm 3 mps 749 mmHg 66%
    16:00 +12°C° 0.1 mm 2 mps 749 mmHg 70%
    17:00 +10°C° 0.1 mm 2 mps 749 mmHg 74%
    18:00 +11°C° 0.1 mm 1 mps 749 mmHg 77%
    19:00 +10°C° 0.1 mm 1 mps 749 mmHg 81%
    20:00 +9°C° 0.1 mm 1 mps 749 mmHg 85%
    21:00 +9°C° 0.3 mm 1 mps 749 mmHg 87%
    22:00 +9°C° 0.3 mm 1 mps 749 mmHg 90%
    23:00 +8°C° 0.3 mm 1 mps 749 mmHg 92%

    Day after tomorrow, 20 September, Friday

    Time Temperature Precipitation Wind Pressure Humidity
    00:00 +8°C° 0.4 mm 1 mps 749 mmHg 93%
    01:00 +7°C° 0.4 mm 1 mps 749 mmHg 93%
    02:00 +7°C° 0.4 mm 1 mps 749 mmHg 94%
    03:00 +6°C° 0.3 mm 2 mps 749 mmHg 94%
    04:00 +5°C° 0.3 mm 2 mps 749 mmHg 95%
    05:00 +5°C° 0.3 mm 2 mps 749 mmHg 95%
    06:00 +5°C° 0.1 mm 2 mps 750 mmHg 93%
    07:00 +5°C° 0.1 mm 3 mps 750 mmHg 92%
    08:00 +5°C° 0.1 mm 4 mps 751 mmHg 90%
    09:00 +5°C° 0 mm 4 mps 751 mmHg 85%
    10:00 +6°C° 0 mm 4 mps 751 mmHg 81%
    11:00 +6°C° 0 mm 5 mps 752 mmHg 76%
    12:00 +7°C° 0 mm 5 mps 752 mmHg 68%
    13:00 +8°C° 0 mm 5 mps 752 mmHg 61%
    14:00 +9°C° 0 mm 5 mps 752 mmHg 53%
    15:00 +8°C° 0 mm 4 mps 752 mmHg 55%
    16:00 +8°C° 0 mm 4 mps 752 mmHg 57%
    17:00 +8°C° 0 mm 3 mps 752 mmHg 59%
    18:00 +7°C° 0 mm 3 mps 753 mmHg 62%
    19:00 +5°C° 0 mm 3 mps 753 mmHg 65%
    20:00 +4°C° 0 mm 2 mps 753 mmHg 68%
    21:00 +4°C° 0 mm 2 mps 753 mmHg 71%
    22:00 +4°C° 0 mm 2 mps 753 mmHg 74%
    23:00 +3°C° 0 mm 2 mps 753 mmHg 77%

    21 September, Saturday

    Time Temperature Precipitation Wind Pressure Humidity
    00:00 +3°C° 0 mm 2 mps 753 mmHg 79%
    01:00 +4°C° 0 mm 2 mps 753 mmHg 82%
    02:00 +4°C° 0 mm 2 mps 753 mmHg 85%
    03:00 +3°C° 0 mm 3 mps 752 mmHg 85%
    04:00 +4°C° 0 mm 3 mps 752 mmHg 85%
    05:00 +5°C° 0 mm 3 mps 751 mmHg 85%
    06:00 +5°C° 0.7 mm 4 mps 750 mmHg 88%
    07:00 +5°C° 0.7 mm 5 mps 750 mmHg 91%
    08:00 +5°C° 0.7 mm 5 mps 749 mmHg 94%
    09:00 +6°C° 0.7 mm 5 mps 749 mmHg 94%
    10:00 +7°C° 0.7 mm 5 mps 749 mmHg 95%
    11:00 +8°C° 0.7 mm 5 mps 748 mmHg 95%
    12:00 +9°C° 0.2 mm 5 mps 748 mmHg 94%
    13:00 +10°C° 0.2 mm 5 mps 748 mmHg 92%
    14:00 +11°C° 0.2 mm 6 mps 747 mmHg 91%
    15:00 +12°C° 0 mm 5 mps 747 mmHg 91%
    16:00 +12°C° 0 mm 5 mps 747 mmHg 91%
    17:00 +12°C° 0 mm 4 mps 747 mmHg 91%
    18:00 +12°C° 0.2 mm 5 mps 747 mmHg 91%
    19:00 +11°C° 0.2 mm 6 mps 747 mmHg 91%
    20:00 +11°C° 0.2 mm 6 mps 747 mmHg 91%
    21:00 +11°C° 0.1 mm 6 mps 746 mmHg 91%
    22:00 +11°C° 0.1 mm 6 mps 746 mmHg 91%
    23:00 +10°C° 0.1 mm 6 mps 746 mmHg 91%

    22 September, Sunday

    Time Temperature Precipitation Wind Pressure Humidity
    00:00 +10°C° 0 mm 6 mps 746 mmHg 91%
    01:00 +10°C° 0 mm 7 mps 746 mmHg 91%
    02:00 +10°C° 0 mm 7 mps 746 mmHg 90%
    03:00 +10°C° 0.1 mm 7 mps 746 mmHg 89%
    04:00 +10°C° 0.1 mm 7 mps 746 mmHg 88%
    05:00 +10°C° 0.1 mm 7 mps 747 mmHg 87%
    06:00 +8°C° 0 mm 7 mps 747 mmHg 82%
    07:00 +7°C° 0 mm 6 mps 748 mmHg 78%
    08:00 +4°C° 0 mm 6 mps 749 mmHg 74%
    09:00 +6°C° 0 mm 5 mps 750 mmHg 69%
    10:00 +7°C° 0 mm 5 mps 750 mmHg 64%
    11:00 +8°C° 0 mm 4 mps 751 mmHg 59%
    12:00 +10°C° 0 mm 4 mps 751 mmHg 57%
    13:00 +10°C° 0 mm 4 mps 751 mmHg 56%
    14:00 +11°C° 0 mm 4 mps 751 mmHg 55%
    15:00 +10°C° 0 mm 3 mps 752 mmHg 58%
    16:00 +10°C° 0 mm 2 mps 752 mmHg 62%
    17:00 +9°C° 0 mm 2 mps 752 mmHg 65%
    18:00 +9°C° 0 mm 1 mps 752 mmHg 69%
    19:00 +7°C° 0 mm 1 mps 752 mmHg 73%
    20:00 +6°C° 0 mm 1 mps 752 mmHg 77%
    21:00 +6°C° 0 mm 1 mps 752 mmHg 78%
    22:00 +5°C° 0 mm 1 mps 752 mmHg 79%
    23:00 +5°C° 0 mm 1 mps 752 mmHg 79%

    23 September, Monday

    Time Temperature Precipitation Wind Pressure Humidity
    00:00 +5°C° 0 mm 1 mps 752 mmHg 79%
    01:00 +5°C° 0 mm 1 mps 752 mmHg 79%
    02:00 +5°C° 0 mm 1 mps 752 mmHg 80%
    03:00 +4°C° 0 mm 2 mps 752 mmHg 79%
    04:00 +4°C° 0 mm 2 mps 752 mmHg 78%
    05:00 +4°C° 0 mm 2 mps 751 mmHg 78%
    06:00 +5°C° 0 mm 2 mps 751 mmHg 76%
    07:00 +4°C° 0 mm 3 mps 751 mmHg 75%
    08:00 +5°C° 0 mm 3 mps 750 mmHg 74%
    09:00 +6°C° 0 mm 4 mps 750 mmHg 70%
    10:00 +7°C° 0 mm 4 mps 749 mmHg 66%
    11:00 +9°C° 0 mm 5 mps 749 mmHg 62%
    12:00 +8°C° 0 mm 4 mps 748 mmHg 63%
    13:00 +8°C° 0 mm 4 mps 747 mmHg 65%
    14:00 +8°C° 0 mm 4 mps 746 mmHg 67%
    15:00 +9°C° 0 mm 3 mps 746 mmHg 68%
    16:00 +10°C° 0 mm 3 mps 745 mmHg 70%
    17:00 +10°C° 0 mm 2 mps 745 mmHg 71%
    18:00 +9°C° 0 mm 2 mps 744 mmHg 76%
    19:00 +7°C° 0 mm 3 mps 744 mmHg 81%
    20:00 +5°C° 0 mm 3 mps 744 mmHg 85%
    21:00 +5°C° 0 mm 3 mps 743 mmHg 87%
    22:00 +4°C° 0 mm 3 mps 743 mmHg 88%
    23:00 +5°C° 0 mm 2 mps 743 mmHg 90%
    Show more